[[{"header":{"parameterUnit":"m.s-1","parameterCategory":2,"la1":30.2991,"la2":30.254,"lo1":-89.0895,"lo2":-89.0444,"dy":0.0017,"dx":0.0017,"nx":28,"ny":28,"refTime":"2024-06-26T21:00:00:Z","depth":"0","parameterNumber":2,"parameterNumberName":"U-component_of_CURRENTS"},"data":[0,0,0,0,0,0,0,0,0,0,0,0,0,0,0,0,0,0,0,0,0,0,0,0,0,0,0,0,0,0,0,0,0,0,0,0,0,0,0,0,0,0,0,0,0,0,0,0,0,0,0,0,0,0,0,0,0,0,0.3157,0.316,0,0.3431,0.3434,0.3437,0.3544,0.3543,0.3543,0.3543,0.3622,0.3624,0.3627,0,0,0,0,0,0,0,0,0,0,0,0,0,0.2907,0.291,0.3156,0.316,0.3164,0.3431,0.3434,0.3438,0.3544,0.3543,0.3543,0.3542,0.3621,0.3624,0.3627,0,0,0,0,0,0,0,0,0,0,0,0,0,0.3078,0.291,0.3156,0.3252,0.3264,0.343,0.3434,0.3439,0.3544,0.3543,0.3543,0.3542,0.362,0.3624,0.3627,0.3662,0,0,0.3639,0.364,0,0,0,0,0,0,0,0,0.3067,0.3086,0.3234,0.3246,0.3259,0.3456,0.3376,0.3505,0.3544,0.3433,0.3543,0.3542,0.3551,0.3561,0.3611,0.3666,0.3669,0.3639,0.3641,0.3643,0.3644,0,0,0,0,0,0,0,0.3055,0.3076,0.3261,0.3238,0.3254,0.3345,0.3366,0.3403,0.3485,0.3443,0.3452,0.349,0.3556,0.3607,0.3613,0.367,0.3639,0.3642,0.3645,0.3646,0.3597,0.3593,0,0,0,0,0,0,0.3021,0.3064,0.3252,0.327,0.3165,0.3349,0.3373,0.339,0.349,0.3507,0.349,0.3494,0.3601,0.3608,0.3616,0.3611,0.3643,0.3646,0.3649,0.36,0.3596,0.3592,0,0,0,0,0,0,0.3014,0.3034,0.3241,0.3178,0.3211,0.3353,0.3372,0.3396,0.3431,0.3528,0.3541,0.3498,0.3601,0.3611,0.3617,0.3616,0.3648,0.3651,0.3604,0.3599,0.3594,0.3632,0,0,0,0,0,0,0.3005,0.303,0.304,0.3174,0.3213,0.331,0.3374,0.3402,0.3458,0.3465,0.354,0.3549,0.3601,0.3611,0.3621,0.3622,0.3654,0.3609,0.3602,0.3596,0.3636,0.3629,0.3623,0,0,0,0,0,0.2995,0.3007,0.3038,0.3062,0.3218,0.331,0.3337,0.3436,0.3458,0.3464,0.3507,0.3545,0.3574,0.3613,0.3625,0.3627,0.3612,0.3604,0.3596,0.3638,0.363,0.3624,0,0,0,0,0,0,0.2893,0.3024,0.3059,0.3106,0.3187,0.3329,0.3359,0.3417,0.3465,0.346,0.3533,0.3544,0.3552,0.3551,0.3592,0.3574,0.3586,0.358,0.3613,0.3606,0.36,0.363,0.3657,0,0,0,0,0,0.2877,0.2936,0.3041,0.3084,0.3104,0.3221,0.3275,0.3335,0.3402,0.3425,0.3486,0.3509,0.3532,0.3538,0.3564,0.3565,0.3603,0.3551,0.3545,0.3541,0.3561,0.3625,0.3631,0.3566,0.3566,0.3566,0,0,0.2857,0.2939,0.2972,0.3071,0.3136,0.3185,0.3249,0.3309,0.3363,0.342,0.3483,0.3507,0.3525,0.3542,0.3539,0.3542,0.3566,0.3531,0.3529,0.3552,0.3618,0.3626,0.3633,0.3561,0.3562,0.3563,0,0,0.287,0.2894,0.2952,0.2994,0.309,0.3152,0.3152,0.3266,0.3313,0.3376,0.3417,0.3436,0.3482,0.3511,0.3524,0.3482,0.3542,0.3452,0.3458,0.3519,0.3528,0.3537,0.3571,0.3582,0.344,0.3441,0.3441,0,0.2832,0.2918,0.2977,0.3023,0.3059,0.312,0.3156,0.3216,0.3329,0.3374,0.3379,0.3466,0.3481,0.3513,0.3496,0.3483,0.3515,0.3507,0.3524,0.3532,0.3541,0.3574,0.3587,0.3441,0.3441,0.3441,0.3441,0,0.2887,0.2938,0.2952,0.3036,0.3072,0.3099,0.3168,0.3209,0.3264,0.3355,0.341,0.3444,0.35,0.3479,0.349,0.3525,0.3527,0.3531,0.3573,0.3552,0.3584,0.3597,0.3443,0.3442,0.3442,0.3442,0,0,0.2804,0.2969,0.2961,0.3008,0.3066,0.3102,0.315,0.3236,0.3295,0.3369,0.3461,0.348,0.3518,0.3527,0.3526,0.3558,0.3632,0.3563,0.3566,0.365,0.3759,0.3684,0.3691,0.3657,0.366,0.3662,0.3754,0,0.2812,0.2932,0.2995,0.3051,0.3091,0.3127,0.3181,0.3259,0.3336,0.3433,0.3471,0.3548,0.3527,0.3553,0.3586,0.3645,0.3668,0.3606,0.3719,0.3722,0.3705,0.3704,0.3546,0.3609,0.3767,0.3769,0.377,0,0.2802,0.2903,0.2987,0.3094,0.3102,0.3132,0.3203,0.3265,0.3389,0.3458,0.3535,0.3599,0.3665,0.3638,0.3746,0.3713,0.3732,0.3756,0.3761,0.3697,0.3672,0.3651,0.3627,0.362,0.379,0.3788,0.3787,0,0.272,0.2855,0.2936,0.2958,0.3094,0.3118,0.3165,0.3275,0.3327,0.3476,0.3533,0.3656,0.3689,0.3779,0.3834,0.3811,0.3948,0.3927,0.3866,0.386,0.3749,0.3729,0.378,0.3985,0.3985,0.3985,0.3984,0,0.2675,0.2707,0.2909,0.2931,0.2998,0.3087,0.3142,0.3219,0.3329,0.339,0.3529,0.3579,0.3725,0.3819,0.3881,0.3923,0.3994,0.3882,0.3889,0.3746,0.3726,0.3732,0.3731,0.3988,0.3987,0.3987,0.3986,0,0.2542,0.2676,0.2761,0.2926,0.2963,0.2994,0.3084,0.3136,0.3249,0.3325,0.337,0.3534,0.3673,0.3808,0.395,0.394,0.3931,0.4004,0.3813,0.3795,0.3707,0.371,0.3557,0.3479,0.3966,0.3965,0.3964,0,0.2489,0.2545,0.2724,0.2772,0.2832,0.2904,0.2947,0.307,0.3117,0.3276,0.3298,0.3465,0.3545,0.3743,0.3815,0.3934,0.3875,0.382,0.3732,0.3693,0.3705,0.3526,0.346,0.3593,0.3589,0.3585,0.3583,0,0.2385,0.2457,0.255,0.2663,0.2719,0.2787,0.2853,0.2878,0.3016,0.3078,0.3162,0.3245,0.3416,0.348,0.3637,0.3684,0.3665,0.3753,0.3777,0.3469,0.3215,0.3146,0.3536,0.3554,0.3557,0.3559,0.3561,0.3562,0.228,0.2334,0.247,0.2547,0.2613,0.2656,0.2645,0.2723,0.2763,0.2816,0.296,0.3019,0.3203,0.3394,0.3421,0.345,0.3419,0.341,0.3435,0.3271,0.3127,0.3437,0.3422,0.3423,0.3425,0.3427,0.3428,0,0.2179,0.2264,0.2344,0.2438,0.244,0.2521,0.2567,0.2527,0.2512,0.2635,0.2668,0.2832,0.2924,0.3102,0.324,0.3183,0.2995,0.3168,0.2921,0.2891,0.3245,0.3165,0.3013,0.3013,0.3013,0.3013,0.3013,0.3013,0.2137,0.2183,0.2252,0.2245,0.2288,0.2235,0.2231,0.2197,0.2249,0.2287,0.2374,0.2484,0.2846,0.3094,0.3141,0.307,0.2924,0.2736,0.2807,0.3137,0.3162,0.3185,0.3112,0.2952,0.2952,0.2283,0.2279,0.2276]},{"header":{"parameterUnit":"m.s-1","parameterCategory":2,"la1":30.2991,"la2":30.254,"lo1":-89.0895,"lo2":-89.0444,"dy":0.0017,"dx":0.0017,"nx":28,"ny":28,"refTime":"2024-06-26T21:00:00:Z","depth":"0","parameterNumber":3,"parameterNumberName":"V-component_of_CURRENTS"},"data":[0,0,0,0,0,0,0,0,0,0,0,0,0,0,0,0,0,0,0,0,0,0,0,0,0,0,0,0,0,0,0,0,0,0,0,0,0,0,0,0,0,0,0,0,0,0,0,0,0,0,0,0,0,0,0,0,0,0,0.0537,0.0537,0,0.051,0.051,0.0509,0.049,0.049,0.049,0.049,0.0471,0.047,0.047,0,0,0,0,0,0,0,0,0,0,0,0,0,0.0555,0.0555,0.0537,0.0537,0.0536,0.051,0.051,0.0509,0.049,0.049,0.049,0.049,0.0471,0.047,0.047,0,0,0,0,0,0,0,0,0,0,0,0,0,0.0539,0.0555,0.0537,0.0524,0.0523,0.051,0.051,0.0509,0.049,0.049,0.049,0.049,0.0471,0.047,0.047,0.0468,0,0,0.0468,0.0467,0,0,0,0,0,0,0,0,0.054,0.0538,0.0526,0.0525,0.0524,0.0504,0.0509,0.0496,0.049,0.0502,0.049,0.049,0.0483,0.0481,0.0475,0.0467,0.0467,0.0468,0.0467,0.0467,0.0467,0,0,0,0,0,0,0,0.0541,0.0539,0.0526,0.0526,0.0524,0.0514,0.0512,0.0506,0.0493,0.0501,0.05,0.0498,0.0482,0.0476,0.0475,0.0466,0.0468,0.0467,0.0467,0.0466,0.0473,0.0474,0,0,0,0,0,0,0.0547,0.054,0.0526,0.0525,0.0532,0.0514,0.0511,0.051,0.0493,0.049,0.0498,0.0497,0.0477,0.0476,0.0474,0.0503,0.0467,0.0466,0.0466,0.0473,0.0473,0.0474,0,0,0,0,0,0,0.0547,0.0546,0.0528,0.0533,0.053,0.0514,0.0512,0.0509,0.0505,0.0491,0.0488,0.0497,0.0477,0.0475,0.0484,0.0501,0.0466,0.0465,0.0472,0.0473,0.0474,0.0541,0,0,0,0,0,0,0.0548,0.0546,0.0542,0.0533,0.053,0.0521,0.0512,0.0509,0.0504,0.0503,0.0489,0.0487,0.0477,0.0485,0.0483,0.05,0.0465,0.0471,0.0472,0.0473,0.0538,0.0544,0.0549,0,0,0,0,0,0.0549,0.0546,0.0542,0.054,0.0526,0.0522,0.0519,0.0507,0.0505,0.0502,0.0504,0.0487,0.049,0.0485,0.0483,0.05,0.0471,0.0472,0.0473,0.0536,0.0543,0.0549,0,0,0,0,0,0,0.0545,0.0543,0.0539,0.0534,0.0529,0.0519,0.0512,0.051,0.0508,0.0511,0.0499,0.0497,0.0509,0.0494,0.0489,0.0503,0.0476,0.0477,0.0524,0.0531,0.0536,0.0556,0.0464,0,0,0,0,0,0.0545,0.0552,0.054,0.0541,0.0532,0.0524,0.0519,0.0518,0.0517,0.0515,0.0509,0.0505,0.0511,0.0513,0.0507,0.0519,0.0492,0.0526,0.0531,0.0536,0.055,0.0534,0.0539,0.0478,0.0478,0.0478,0,0,0.0549,0.0547,0.0551,0.0542,0.0533,0.0539,0.0521,0.0519,0.0542,0.0514,0.0535,0.0522,0.0517,0.0533,0.0536,0.0524,0.0534,0.0538,0.0542,0.0554,0.0536,0.0542,0.0547,0.0479,0.0479,0.0479,0,0,0.0572,0.055,0.0568,0.0559,0.0553,0.0549,0.0551,0.0543,0.0551,0.057,0.056,0.0565,0.0563,0.057,0.0574,0.0606,0.0562,0.0595,0.0645,0.0629,0.0634,0.0638,0.0591,0.0591,0.0601,0.0601,0.0601,0,0.0571,0.0594,0.0571,0.0579,0.0578,0.0558,0.0575,0.0581,0.0585,0.0616,0.0584,0.0603,0.0587,0.0631,0.0637,0.0622,0.0591,0.0623,0.0637,0.0641,0.0644,0.0595,0.0594,0.0604,0.0604,0.0604,0.0603,0,0.0609,0.0621,0.0623,0.0634,0.0628,0.0635,0.0636,0.0653,0.0657,0.0678,0.071,0.068,0.0703,0.0685,0.0672,0.0696,0.0657,0.0644,0.0623,0.0655,0.06,0.0598,0.0609,0.0608,0.0607,0.0606,0,0,0.0616,0.0649,0.0647,0.0673,0.0656,0.0666,0.0701,0.0746,0.0806,0.0785,0.0853,0.0832,0.0822,0.0823,0.0793,0.0766,0.0746,0.0717,0.0714,0.0676,0.0685,0.068,0.0675,0.0733,0.0734,0.0734,0.063,0,0.0651,0.0698,0.0698,0.0744,0.0763,0.0758,0.0805,0.0844,0.0871,0.093,0.0911,0.0951,0.0875,0.0886,0.0851,0.079,0.0746,0.0774,0.0656,0.0652,0.0649,0.0676,0.0615,0.0521,0.0627,0.0627,0.0627,0,0.0678,0.0713,0.0764,0.0831,0.0838,0.0865,0.0939,0.0984,0.1059,0.1085,0.1108,0.1097,0.1083,0.0999,0.0892,0.0913,0.0806,0.0727,0.0722,0.0697,0.0644,0.051,0.0512,0.0394,0.0622,0.0623,0.0623,0,0.07,0.0757,0.0811,0.0818,0.0882,0.0925,0.0966,0.104,0.111,0.1188,0.1239,0.1218,0.1208,0.109,0.0945,0.0918,0.0808,0.0754,0.0636,0.0632,0.0551,0.0541,0.0434,0.0661,0.0662,0.0662,0.0662,0,0.0726,0.0768,0.0834,0.0858,0.0947,0.0972,0.1079,0.1132,0.1226,0.1324,0.1321,0.1364,0.1228,0.1159,0.0998,0.0828,0.085,0.0653,0.0619,0.057,0.0563,0.0433,0.0358,0.0658,0.0659,0.066,0.066,0,0.0733,0.0773,0.0843,0.0926,0.0958,0.1018,0.1135,0.1226,0.1306,0.1423,0.1454,0.1474,0.1387,0.1241,0.1052,0.0902,0.0651,0.0664,0.0608,0.0571,0.0351,0.0282,0.0148,0.0086,0.051,0.0509,0.0509,0,0.0747,0.0783,0.0878,0.0927,0.0964,0.1061,0.1143,0.125,0.1344,0.1482,0.1542,0.1524,0.1503,0.1255,0.1003,0.0747,0.0618,0.0525,0.0468,0.0347,0.0243,0.0213,0.0169,0.0358,0.0356,0.0355,0.0354,0,0.0771,0.0797,0.0855,0.0955,0.1038,0.1147,0.1265,0.1353,0.149,0.1586,0.1682,0.168,0.1463,0.1208,0.0903,0.0706,0.0434,0.049,0.0375,0.0137,0.0084,0.0006,0.0401,0.0342,0.0343,0.0344,0.0345,0.0345,0.0784,0.0825,0.0902,0.0997,0.1093,0.1228,0.1332,0.1455,0.1606,0.1753,0.1739,0.1764,0.1428,0.1006,0.0736,0.03,0.032,0.0136,0.0061,0.0046,-0.0005,0.0371,0.0283,0.0284,0.0284,0.0285,0.0286,0,0.0808,0.0861,0.0947,0.1076,0.1183,0.1239,0.1417,0.1521,0.1681,0.1797,0.1847,0.1742,0.1262,0.0865,0.0263,-0.0067,-0.0182,-0.0224,-0.0309,-0.0334,-0.0008,-0.0002,-0.0166,-0.0166,-0.0166,-0.0166,-0.0166,-0.0166,0.0825,0.0904,0.0956,0.1133,0.1228,0.1397,0.1504,0.1633,0.1753,0.1906,0.1978,0.2001,0.1809,0.0584,-0.0172,-0.0387,-0.059,-0.0661,-0.07,-0.0515,-0.0487,-0.0461,-0.0471,-0.0731,-0.0732,-0.1009,-0.1012,-0.1014]}],[{"header":{"parameterUnit":"m.s-1","parameterCategory":2,"la1":30.2991,"la2":30.254,"lo1":-89.0895,"lo2":-89.0444,"dy":0.0017,"dx":0.0017,"nx":28,"ny":28,"refTime":"2024-06-26T21:00:00:Z","depth":"2","parameterNumber":2,"parameterNumberName":"U-component_of_CURRENTS"},"data":[0,0,0,0,0,0,0,0,0,0,0,0,0,0,0,0,0,0,0,0,0,0,0,0,0,0,0,0,0,0,0,0,0,0,0,0,0,0,0,0,0,0,0,0,0,0,0,0,0,0,0,0,0,0,0,0,0,0,0.2686,0.2688,0,0.2839,0.2841,0.2842,0.2875,0.2874,0.2873,0.2872,0.3043,0.3048,0.3053,0,0,0,0,0,0,0,0,0,0,0,0,0,0.2636,0.2635,0.2686,0.2688,0.269,0.2839,0.2841,0.2843,0.2875,0.2874,0.2873,0.2872,0.3041,0.3047,0.3053,0,0,0,0,0,0,0,0,0,0,0,0,0,0.2706,0.2634,0.2686,0.2727,0.2732,0.2839,0.2841,0.2843,0.2875,0.2874,0.2872,0.2871,0.3039,0.3047,0.3054,0.3128,0,0,0.3079,0.3082,0,0,0,0,0,0,0,0,0.2702,0.2707,0.2719,0.2724,0.2731,0.284,0.2886,0.2941,0.2875,0.2817,0.2872,0.2871,0.298,0.2992,0.3019,0.3136,0.3144,0.3079,0.3084,0.3088,0.309,0,0,0,0,0,0,0,0.2697,0.2702,0.2743,0.2721,0.2729,0.2812,0.2818,0.2897,0.2901,0.2822,0.2826,0.2849,0.2982,0.3011,0.3023,0.3146,0.3079,0.3086,0.3091,0.3094,0.3068,0.3063,0,0,0,0,0,0,0.2675,0.2696,0.2738,0.2748,0.2717,0.2813,0.282,0.2803,0.29,0.2914,0.285,0.285,0.2998,0.3014,0.3029,0.3079,0.3088,0.3095,0.31,0.3074,0.3067,0.3061,0,0,0,0,0,0,0.2672,0.2675,0.2732,0.2732,0.2745,0.2814,0.2796,0.2807,0.2886,0.2921,0.2935,0.2923,0.2998,0.3018,0.3049,0.3087,0.3099,0.3106,0.308,0.3072,0.3064,0.3207,0,0,0,0,0,0,0.2669,0.2672,0.2688,0.2728,0.2744,0.2819,0.2798,0.2811,0.2901,0.2904,0.2989,0.3,0.2998,0.3036,0.3056,0.3098,0.3112,0.3087,0.3076,0.3067,0.3209,0.3204,0.3201,0,0,0,0,0,0.2666,0.2669,0.2687,0.2695,0.2749,0.2822,0.2839,0.2883,0.2906,0.295,0.294,0.3,0.2982,0.3041,0.3066,0.3111,0.3092,0.3079,0.3067,0.3211,0.3205,0.3201,0,0,0,0,0,0,0.2627,0.2674,0.2694,0.2703,0.2777,0.2829,0.2849,0.2927,0.2966,0.2946,0.2992,0.3001,0.3035,0.3013,0.3077,0.3037,0.3025,0.3018,0.3125,0.3121,0.3116,0.3164,0.3119,0,0,0,0,0,0.2634,0.2672,0.2719,0.2744,0.2741,0.282,0.2869,0.2914,0.2944,0.2965,0.3015,0.2998,0.2997,0.3015,0.3009,0.3045,0.3075,0.3048,0.3044,0.3042,0.3075,0.3135,0.3146,0.3021,0.3021,0.3021,0,0,0.2634,0.2666,0.269,0.2748,0.2764,0.28,0.2842,0.29,0.2975,0.2977,0.3046,0.3033,0.2997,0.2996,0.3005,0.2998,0.3078,0.3027,0.3029,0.3062,0.3124,0.3139,0.3152,0.3012,0.3014,0.3015,0,0,0.267,0.2646,0.2701,0.2722,0.2785,0.2819,0.2856,0.2925,0.2979,0.3063,0.3027,0.3011,0.307,0.3011,0.2999,0.2963,0.3067,0.2954,0.3002,0.3061,0.3077,0.3091,0.3135,0.3153,0.2942,0.2942,0.2942,0,0.2665,0.2714,0.2737,0.2759,0.2761,0.2829,0.2859,0.2934,0.3034,0.3082,0.308,0.3089,0.3066,0.3056,0.3004,0.2977,0.3037,0.3065,0.3076,0.309,0.3103,0.3145,0.3163,0.2948,0.2947,0.2946,0.2946,0,0.2727,0.2755,0.2747,0.2793,0.2821,0.2833,0.2893,0.2975,0.305,0.3132,0.3187,0.313,0.3129,0.3096,0.3066,0.3103,0.3126,0.3099,0.3143,0.3129,0.3167,0.3184,0.2955,0.2953,0.2952,0.295,0,0,0.2672,0.2786,0.2769,0.2806,0.2811,0.2846,0.2921,0.3027,0.3114,0.3195,0.3294,0.324,0.3244,0.3214,0.3159,0.319,0.3302,0.3202,0.3202,0.334,0.3475,0.325,0.3246,0.3341,0.3344,0.3347,0.3468,0,0.2691,0.2786,0.2818,0.2867,0.2874,0.2901,0.2979,0.3086,0.3175,0.3284,0.3284,0.3327,0.3282,0.3273,0.3309,0.3312,0.3354,0.3273,0.3383,0.3385,0.3268,0.3259,0.3033,0.3103,0.3484,0.3487,0.3489,0,0.2679,0.276,0.283,0.292,0.2911,0.2958,0.3038,0.3128,0.3271,0.3343,0.34,0.3433,0.3461,0.3416,0.3502,0.3485,0.3496,0.3499,0.3503,0.3267,0.319,0.3165,0.3119,0.3517,0.3515,0.3513,0.3511,0,0.2615,0.2722,0.2802,0.2799,0.2925,0.2971,0.3028,0.3147,0.3214,0.3368,0.3418,0.3519,0.3515,0.3615,0.3616,0.3606,0.3731,0.3692,0.3502,0.3487,0.3291,0.325,0.3769,0.3769,0.3769,0.3768,0.3768,0,0.2559,0.2591,0.2794,0.2807,0.2892,0.2957,0.3036,0.3132,0.3238,0.3297,0.3423,0.3457,0.3579,0.3655,0.3698,0.3649,0.3796,0.3527,0.3505,0.3316,0.3277,0.3622,0.3603,0.3773,0.3772,0.3771,0.377,0,0.2441,0.2567,0.2655,0.2824,0.2862,0.2908,0.2994,0.3059,0.3174,0.3244,0.3289,0.3433,0.3492,0.3591,0.3699,0.366,0.369,0.363,0.3384,0.3325,0.3398,0.3384,0.3448,0.3441,0.3436,0.3431,0.3427,0,0.2393,0.245,0.2635,0.2684,0.2748,0.283,0.2875,0.3001,0.3045,0.3201,0.3218,0.331,0.3309,0.3387,0.3366,0.3393,0.3515,0.3189,0.3056,0.3394,0.3368,0.3362,0.3356,0.2874,0.2866,0.2859,0.2854,0,0.2298,0.2381,0.2477,0.2579,0.2641,0.2713,0.2782,0.2809,0.295,0.2999,0.3057,0.3075,0.3068,0.2963,0.2957,0.2943,0.317,0.3036,0.3519,0.2937,0.2847,0.2822,0.2837,0.2793,0.2799,0.2804,0.2807,0.2809,0.2204,0.226,0.2395,0.2466,0.2533,0.2581,0.2572,0.2639,0.2668,0.2686,0.2811,0.2738,0.2751,0.2547,0.2507,0.2486,0.2657,0.2622,0.2648,0.268,0.2538,0.2437,0.2282,0.2285,0.2288,0.229,0.2292,0,0.2104,0.2191,0.2264,0.2356,0.2355,0.2444,0.2492,0.2426,0.2386,0.2441,0.2421,0.2196,0.2099,0.2131,0.1991,0.1972,0.1995,0.1916,0.1989,0.2048,0.2102,0.1935,0.1518,0.1515,0.1513,0.1511,0,0,0.2062,0.2102,0.2164,0.2152,0.2203,0.2138,0.2137,0.2051,0.2039,0.1936,0.1895,0.1979,0.2065,0.1778,0.1739,0.163,0.1824,0.1548,0.2172,0.2319,0.237,0.2509,0.2316,0,0,0,0,0]},{"header":{"parameterUnit":"m.s-1","parameterCategory":2,"la1":30.2991,"la2":30.254,"lo1":-89.0895,"lo2":-89.0444,"dy":0.0017,"dx":0.0017,"nx":28,"ny":28,"refTime":"2024-06-26T21:00:00:Z","depth":"2","parameterNumber":3,"parameterNumberName":"V-component_of_CURRENTS"},"data":[0,0,0,0,0,0,0,0,0,0,0,0,0,0,0,0,0,0,0,0,0,0,0,0,0,0,0,0,0,0,0,0,0,0,0,0,0,0,0,0,0,0,0,0,0,0,0,0,0,0,0,0,0,0,0,0,0,0,0.0257,0.0256,0,0.0123,0.0122,0.012,0.0025,0.0024,0.0023,0.0022,0.003,0.0031,0.0032,0,0,0,0,0,0,0,0,0,0,0,0,0,0.0396,0.0394,0.0258,0.0256,0.0254,0.0123,0.0122,0.012,0.0025,0.0024,0.0023,0.0021,0.0029,0.0031,0.0032,0,0,0,0,0,0,0,0,0,0,0,0,0,0.0309,0.0394,0.0258,0.0188,0.0181,0.0123,0.0122,0.012,0.0025,0.0024,0.0022,0.0021,0.0029,0.0031,0.0032,0.0074,0,0,0.0038,0.0038,0,0,0,0,0,0,0,0,0.0314,0.0305,0.02,0.0193,0.0184,0.0086,0.0173,0.0111,0.0026,0.0088,0.0022,0.002,0.0061,0.006,0.0041,0.0075,0.0075,0.0038,0.0039,0.004,0.004,0,0,0,0,0,0,0,0.0321,0.031,0.0207,0.0198,0.0188,0.0151,0.0138,0.016,0.009,0.0082,0.0074,0.0055,0.0058,0.0039,0.004,0.0075,0.0038,0.0039,0.004,0.0041,0.0108,0.0108,0,0,0,0,0,0,0.0334,0.0316,0.0212,0.0203,0.0243,0.015,0.0135,0.0122,0.0086,0.0077,0.0056,0.0051,0.0037,0.0038,0.0041,0.0101,0.004,0.0041,0.0042,0.0107,0.0108,0.0109,0,0,0,0,0,0,0.0338,0.0327,0.0217,0.0253,0.0236,0.0149,0.0135,0.012,0.0132,0.0064,0.0058,0.0086,0.0036,0.0038,0.006,0.0101,0.0042,0.0044,0.0106,0.0107,0.0108,0.0216,0,0,0,0,0,0,0.0343,0.0329,0.0328,0.0255,0.0235,0.0208,0.0136,0.0118,0.0118,0.0111,0.0089,0.0084,0.0035,0.0058,0.0062,0.0102,0.0045,0.0105,0.0107,0.0108,0.0211,0.022,0.0228,0,0,0,0,0,0.0348,0.0344,0.0329,0.0316,0.0235,0.0209,0.0197,0.0131,0.0122,0.0137,0.0104,0.0087,0.0068,0.0061,0.0065,0.0107,0.0105,0.0106,0.0108,0.0208,0.0219,0.0228,0,0,0,0,0,0,0.0384,0.0331,0.0314,0.0289,0.0267,0.0192,0.0172,0.0171,0.0157,0.0148,0.011,0.0104,0.0132,0.011,0.0102,0.0124,0.0081,0.0083,0.0155,0.0165,0.0173,0.019,0.0047,0,0,0,0,0,0.04,0.0397,0.0344,0.0332,0.0311,0.0266,0.025,0.0226,0.0196,0.0188,0.0169,0.0145,0.0139,0.0146,0.0126,0.0165,0.0133,0.0187,0.0196,0.0203,0.0217,0.0197,0.0205,0.0114,0.0114,0.0114,0,0,0.0411,0.0381,0.0378,0.0343,0.0302,0.0295,0.0253,0.0239,0.0264,0.0198,0.0217,0.0186,0.0155,0.0164,0.0177,0.0156,0.021,0.0205,0.0212,0.0222,0.0199,0.0208,0.0216,0.0115,0.0115,0.0115,0,0,0.0445,0.0403,0.0419,0.0396,0.036,0.0332,0.0353,0.031,0.0314,0.0342,0.0284,0.0266,0.0283,0.0232,0.0223,0.0277,0.0255,0.0294,0.0359,0.034,0.0348,0.0355,0.0319,0.0322,0.0299,0.0299,0.0299,0,0.0458,0.0463,0.0423,0.042,0.0393,0.0366,0.0374,0.0385,0.0369,0.0401,0.0362,0.0345,0.0303,0.0319,0.0312,0.0297,0.0292,0.0328,0.0354,0.0359,0.0364,0.0326,0.0327,0.0305,0.0304,0.0303,0.0303,0,0.0496,0.0498,0.0492,0.0484,0.0465,0.046,0.0449,0.0487,0.0496,0.0505,0.0538,0.0453,0.0444,0.0424,0.0387,0.0411,0.0397,0.0368,0.0334,0.038,0.0336,0.0336,0.0312,0.031,0.0309,0.0307,0,0,0.0516,0.0524,0.052,0.0541,0.049,0.0495,0.0539,0.0585,0.066,0.0638,0.0706,0.0641,0.061,0.0592,0.0532,0.05,0.0498,0.0467,0.0463,0.0443,0.0472,0.0384,0.0374,0.0501,0.0502,0.0502,0.0426,0,0.0553,0.0588,0.0571,0.061,0.0611,0.0597,0.0654,0.0701,0.0731,0.0797,0.0749,0.0771,0.0678,0.067,0.0629,0.054,0.0506,0.0522,0.0421,0.0417,0.0342,0.0373,0.0357,0.0283,0.0425,0.0425,0.0425,0,0.058,0.0603,0.0641,0.0699,0.0698,0.073,0.0804,0.0859,0.0944,0.0971,0.0976,0.095,0.0902,0.0808,0.0685,0.0718,0.0612,0.0523,0.0518,0.0401,0.0328,0.0259,0.0276,0.0423,0.0423,0.0424,0.0424,0,0.0609,0.0653,0.0698,0.0693,0.0748,0.0802,0.0846,0.0921,0.1,0.1078,0.1126,0.1084,0.1049,0.0936,0.0759,0.0742,0.0623,0.0563,0.0377,0.0369,0.0313,0.0298,0.0478,0.0478,0.0478,0.0478,0.0478,0,0.0632,0.0673,0.0734,0.0753,0.085,0.0861,0.098,0.1043,0.1132,0.1229,0.1214,0.1241,0.1086,0.1005,0.0834,0.0614,0.0678,0.0395,0.035,0.0346,0.0336,0.0423,0.0417,0.0475,0.0476,0.0476,0.0477,0,0.0649,0.0681,0.075,0.0831,0.0864,0.0933,0.1048,0.1148,0.1227,0.1338,0.1367,0.1368,0.1228,0.1058,0.0849,0.0689,0.0495,0.04,0.0398,0.0352,0.023,0.0231,0.0173,0.0169,0.0166,0.0164,0.0162,0,0.0667,0.0702,0.0795,0.0843,0.0884,0.0987,0.107,0.1178,0.1269,0.1401,0.1455,0.1388,0.1302,0.0984,0.0701,0.0397,0.0402,0.0211,0.0137,0.0241,0.0202,0.0208,0.0213,0.0104,0.0102,0.01,0.0098,0,0.0696,0.0728,0.0782,0.0877,0.0964,0.1075,0.1195,0.1284,0.142,0.1501,0.1569,0.1514,0.12,0.0878,0.0497,0.0295,0.0257,0.0153,0.0295,0.0175,0.0167,0.0132,0.0141,0.0081,0.0082,0.0084,0.0085,0.0085,0.0716,0.0758,0.0831,0.0924,0.102,0.1158,0.1262,0.1373,0.1511,0.1616,0.1587,0.1492,0.1177,0.0613,0.0319,0.0044,0.004,-0.0054,-0.0044,-0.0032,-0.0035,-0.0049,-0.0177,-0.0177,-0.0177,-0.0177,-0.0176,0,0.0741,0.0795,0.0878,0.1004,0.1109,0.117,0.1347,0.1422,0.1554,0.1597,0.1592,0.1272,0.0902,0.0578,0.0126,-0.0158,-0.0146,-0.0229,-0.0139,-0.0122,-0.0107,-0.0109,-0.0274,-0.0274,-0.0275,-0.0275,0,0,0.0759,0.0834,0.0883,0.1056,0.1156,0.1312,0.1419,0.1488,0.1543,0.1547,0.1502,0.1349,0.0967,0.0629,0.0245,0.0002,0.0013,-0.0054,0.0043,0.0208,0.0228,-0.0003,0.0011,0,0,0,0,0]}],[{"header":{"parameterUnit":"m.s-1","parameterCategory":2,"la1":30.2991,"la2":30.254,"lo1":-89.0895,"lo2":-89.0444,"dy":0.0017,"dx":0.0017,"nx":28,"ny":28,"refTime":"2024-06-26T21:00:00:Z","depth":"4","parameterNumber":2,"parameterNumberName":"U-component_of_CURRENTS"},"data":[0,0,0,0,0,0,0,0,0,0,0,0,0,0,0,0,0,0,0,0,0,0,0,0,0,0,0,0,0,0,0,0,0,0,0,0,0,0,0,0,0,0,0,0,0,0,0,0,0,0,0,0,0,0,0,0,0,0,0.0551,0.0551,0,0.04,0.0396,0.0392,0.0231,0.0232,0.0232,0.0232,0.0138,0.0135,0.0133,0,0,0,0,0,0,0,0,0,0,0,0,0,0.0521,0.0521,0.0551,0.0551,0.0552,0.0401,0.0396,0.0391,0.0231,0.0232,0.0232,0.0232,0.0139,0.0136,0.0132,0,0,0,0,0,0,0,0,0,0,0,0,0,0.0442,0.0521,0.0551,0.0475,0.0469,0.0402,0.0396,0.039,0.0231,0.0232,0.0232,0.0233,0.014,0.0136,0.0132,0.0096,0,0,0.0119,0.0117,0,0,0,0,0,0,0,0,0.0447,0.044,0.0485,0.048,0.0474,0.036,0.0352,0.0304,0.0231,0.0291,0.0232,0.0233,0.0236,0.0224,0.0153,0.0092,0.0088,0.0119,0.0116,0.0114,0.0113,0,0,0,0,0,0,0,0.0453,0.0445,0.0462,0.0487,0.048,0.0389,0.0377,0.0339,0.0242,0.0286,0.0281,0.0309,0.0229,0.0157,0.0151,0.0087,0.0119,0.0115,0.0113,0.0111,0.0253,0.0259,0,0,0,0,0,0,0.0537,0.0451,0.0468,0.0461,0.0493,0.0392,0.0377,0.0373,0.0241,0.0229,0.0309,0.0303,0.0164,0.0155,0.0147,0.026,0.0114,0.011,0.0108,0.0247,0.0254,0.0261,0,0,0,0,0,0,0.0536,0.0538,0.0474,0.0476,0.0466,0.0397,0.039,0.037,0.0348,0.0263,0.0246,0.0319,0.0164,0.0153,0.0147,0.025,0.0109,0.0105,0.0239,0.0249,0.0258,0.0385,0,0,0,0,0,0,0.0535,0.0537,0.0544,0.0482,0.047,0.0452,0.0392,0.0368,0.0376,0.0366,0.0266,0.0253,0.0164,0.0154,0.0143,0.0242,0.0101,0.0231,0.0244,0.0255,0.0373,0.0397,0.0418,0,0,0,0,0,0.0534,0.0506,0.0544,0.0548,0.0486,0.0456,0.0436,0.037,0.0378,0.0352,0.0308,0.0258,0.0225,0.0152,0.0138,0.0239,0.0226,0.024,0.0254,0.0362,0.0392,0.0418,0,0,0,0,0,0,0.0526,0.049,0.0528,0.0506,0.0519,0.044,0.0436,0.0415,0.035,0.038,0.0277,0.026,0.031,0.0273,0.0196,0.0333,0.0244,0.0256,0.0332,0.036,0.0382,0.0412,0.0098,0,0,0,0,0,0.0542,0.0465,0.051,0.0488,0.0543,0.0518,0.0504,0.0487,0.0446,0.0417,0.0352,0.0342,0.035,0.035,0.0327,0.0366,0.0336,0.0454,0.0477,0.0495,0.0523,0.0568,0.0595,0.0308,0.0307,0.0307,0,0,0.0504,0.0507,0.045,0.0477,0.0501,0.0513,0.0502,0.0531,0.0508,0.0428,0.0382,0.0403,0.0381,0.0419,0.0448,0.0401,0.056,0.0514,0.0528,0.0546,0.0585,0.0612,0.0636,0.0317,0.0315,0.0314,0,0,0.0402,0.0473,0.0392,0.0458,0.055,0.0535,0.0579,0.0577,0.0568,0.0548,0.0536,0.0615,0.0554,0.0581,0.0587,0.074,0.0676,0.0789,0.0915,0.0958,0.098,0.0999,0.0963,0.0978,0.0802,0.0803,0.0803,0,0.0436,0.0351,0.0373,0.0415,0.0501,0.0567,0.061,0.0582,0.055,0.0568,0.056,0.0638,0.0625,0.0737,0.0813,0.0787,0.0782,0.0788,0.0981,0.0999,0.1017,0.0975,0.0989,0.0811,0.081,0.0809,0.0808,0,0.0295,0.0308,0.0327,0.0371,0.043,0.0511,0.0583,0.0587,0.0624,0.0609,0.0744,0.0781,0.0868,0.0901,0.0889,0.1077,0.102,0.0989,0.0887,0.1052,0.0999,0.1011,0.0822,0.0819,0.0817,0.0815,0,0,0.0312,0.0228,0.0271,0.0294,0.0484,0.0492,0.0545,0.0594,0.0611,0.0684,0.0759,0.0893,0.1042,0.1077,0.1169,0.1216,0.1331,0.1193,0.1191,0.1116,0.1392,0.1198,0.1191,0.1341,0.1345,0.1348,0.1289,0,0.0296,0.0212,0.0241,0.0271,0.0309,0.0466,0.0486,0.0545,0.0598,0.0653,0.0852,0.0937,0.1081,0.1189,0.132,0.1318,0.1381,0.1348,0.1282,0.1279,0.1053,0.1206,0.1362,0.1298,0.1301,0.1303,0.1304,0,0.0279,0.0211,0.018,0.0219,0.0283,0.032,0.0457,0.0484,0.0609,0.068,0.0924,0.1036,0.1285,0.1326,0.1524,0.1509,0.1519,0.1474,0.147,0.1259,0.1111,0.1116,0.1326,0.1324,0.1323,0.1321,0.132,0,0.0259,0.0244,0.0174,0.0234,0.0259,0.0327,0.0387,0.0505,0.0583,0.0739,0.0823,0.112,0.1289,0.1409,0.1473,0.1514,0.1535,0.1551,0.1373,0.1353,0.1477,0.1457,0.165,0.165,0.165,0.165,0.165,0,0.0301,0.0318,0.0141,0.0159,0.0171,0.0275,0.039,0.0438,0.0631,0.0731,0.0926,0.1085,0.132,0.1389,0.1456,0.1458,0.1561,0.1422,0.1355,0.1529,0.1517,0.1481,0.1462,0.1648,0.1648,0.1649,0.1649,0,0.0355,0.0257,0.018,0.0121,0.0164,0.0183,0.0419,0.0472,0.0625,0.0785,0.0856,0.1083,0.1164,0.1253,0.1325,0.138,0.1351,0.1292,0.1403,0.1336,0.1152,0.1142,0.1165,0.1158,0.1152,0.1148,0.1144,0,0.0351,0.0287,0.0121,0.0115,0.0139,0.0225,0.0327,0.0491,0.0566,0.0775,0.0832,0.0947,0.1083,0.1087,0.1151,0.1153,0.1154,0.1117,0.1267,0.1185,0.1118,0.1116,0.1114,0.1135,0.1133,0.1132,0.113,0,0.0359,0.0273,0.0123,0.0087,0.0146,0.0209,0.0347,0.0419,0.0592,0.0698,0.0858,0.0932,0.0972,0.1059,0.0981,0.101,0.1149,0.106,0.1076,0.1218,0.1149,0.1087,0.1091,0.111,0.1113,0.1115,0.1116,0,0.0347,0.0214,0.0018,0.004,0.0097,0.0199,0.0277,0.0414,0.0538,0.0741,0.078,0.0899,0.1004,0.0971,0.0928,0.0893,0.0955,0.0988,0.101,0.1031,0.1005,0.0899,0.0755,0,0,0,0,0,0.0329,0.0184,0.0072,0.0022,0.0096,0.0195,0.029,0.0364,0.0502,0.0608,0.0722,0.0765,0.0815,0.0858,0.0801,0.0782,0.0877,0.0703,0.0909,0.1002,0.1024,0.1,0,0,0,0,0,0,0.03,0.0124,-0.0009,0.0055,0.0121,0.0226,0.0309,0.0387,0.046,0.0601,0.0639,0.0728,0.076,0.0871,0.0811,0.0798,0.091,0.0745,0.0742,0.0989,0.1009,0.1028,0.101,0,0,0,0,0]},{"header":{"parameterUnit":"m.s-1","parameterCategory":2,"la1":30.2991,"la2":30.254,"lo1":-89.0895,"lo2":-89.0444,"dy":0.0017,"dx":0.0017,"nx":28,"ny":28,"refTime":"2024-06-26T21:00:00:Z","depth":"4","parameterNumber":3,"parameterNumberName":"V-component_of_CURRENTS"},"data":[0,0,0,0,0,0,0,0,0,0,0,0,0,0,0,0,0,0,0,0,0,0,0,0,0,0,0,0,0,0,0,0,0,0,0,0,0,0,0,0,0,0,0,0,0,0,0,0,0,0,0,0,0,0,0,0,0,0,-0.0066,-0.0067,0,-0.0111,-0.0111,-0.011,-0.0056,-0.0055,-0.0054,-0.0052,-0.0126,-0.0129,-0.0132,0,0,0,0,0,0,0,0,0,0,0,0,0,-0.0023,-0.0022,-0.0066,-0.0068,-0.0069,-0.0111,-0.0111,-0.011,-0.0056,-0.0055,-0.0053,-0.0052,-0.0125,-0.0129,-0.0133,0,0,0,0,0,0,0,0,0,0,0,0,0,-0.0044,-0.0022,-0.0066,-0.0053,-0.0053,-0.0111,-0.0111,-0.011,-0.0057,-0.0055,-0.0053,-0.0051,-0.0124,-0.0129,-0.0133,-0.02,0,0,-0.0148,-0.015,0,0,0,0,0,0,0,0,-0.0043,-0.0044,-0.0054,-0.0054,-0.0054,-0.0083,-0.0123,-0.0145,-0.0057,-0.0047,-0.0052,-0.005,-0.0121,-0.0126,-0.0127,-0.0204,-0.0207,-0.0148,-0.0151,-0.0153,-0.0154,0,0,0,0,0,0,0,-0.0041,-0.0043,-0.0076,-0.0055,-0.0056,-0.0076,-0.0075,-0.0126,-0.0088,-0.0047,-0.0046,-0.0064,-0.012,-0.0122,-0.0128,-0.0208,-0.0148,-0.0152,-0.0155,-0.0157,-0.0311,-0.0312,0,0,0,0,0,0,-0.0049,-0.0041,-0.0074,-0.0078,-0.0053,-0.0078,-0.0077,-0.0069,-0.0087,-0.009,-0.0066,-0.0062,-0.0115,-0.0123,-0.0131,-0.0181,-0.0153,-0.0157,-0.016,-0.031,-0.0311,-0.0312,0,0,0,0,0,0,-0.0048,-0.0051,-0.0073,-0.0068,-0.0074,-0.0081,-0.0073,-0.0071,-0.0075,-0.0102,-0.0103,-0.0072,-0.0114,-0.0124,-0.019,-0.0184,-0.016,-0.0164,-0.0308,-0.031,-0.0312,-0.0301,0,0,0,0,0,0,-0.0046,-0.0049,-0.0027,-0.0068,-0.0074,-0.0096,-0.0075,-0.0074,-0.0093,-0.0087,-0.0109,-0.0113,-0.0113,-0.0183,-0.0194,-0.019,-0.0167,-0.0307,-0.0309,-0.0311,-0.03,-0.0302,-0.0304,0,0,0,0,0,-0.0043,-0.0032,-0.0025,-0.0029,-0.0049,-0.0097,-0.0101,-0.0096,-0.0095,-0.0092,-0.0126,-0.0112,-0.0204,-0.0189,-0.0202,-0.0199,-0.0305,-0.0308,-0.0311,-0.0299,-0.0302,-0.0304,0,0,0,0,0,0,0.0001,-0.0028,-0.002,-0.0014,-0.0048,-0.0091,-0.0086,-0.0109,-0.0133,-0.013,-0.0152,-0.016,-0.0212,-0.0223,-0.0206,-0.0251,-0.0244,-0.025,-0.023,-0.0234,-0.0236,-0.0211,-0.0171,0,0,0,0,0,0.0016,0.0022,-0.002,-0.0015,-0.0026,-0.0062,-0.0078,-0.0092,-0.0133,-0.0139,-0.0178,-0.0208,-0.0236,-0.0249,-0.0286,-0.0328,-0.0338,-0.0329,-0.0331,-0.0333,-0.0323,-0.035,-0.0353,-0.0322,-0.0322,-0.0322,0,0,0.0024,0.0016,0.0015,-0.0006,-0.0022,-0.0052,-0.0062,-0.0097,-0.0144,-0.0151,-0.0221,-0.0237,-0.0257,-0.0291,-0.0312,-0.0296,-0.0351,-0.0337,-0.0337,-0.0327,-0.0354,-0.0356,-0.0359,-0.0324,-0.0323,-0.0323,0,0,0.0042,0.0047,0.0061,0.0027,-0.0011,-0.0044,-0.0062,-0.0126,-0.0161,-0.0249,-0.0247,-0.0269,-0.0347,-0.0333,-0.0339,-0.0387,-0.0376,-0.0387,-0.0363,-0.039,-0.0392,-0.0394,-0.042,-0.0424,-0.0371,-0.0371,-0.0371,0,0.0062,0.007,0.0052,0.0043,0.0004,-0.0045,-0.0074,-0.0127,-0.0218,-0.0274,-0.0274,-0.0348,-0.0364,-0.0367,-0.0359,-0.0389,-0.0398,-0.0345,-0.039,-0.0392,-0.0394,-0.0421,-0.0425,-0.037,-0.037,-0.037,-0.037,0,0.0073,0.0078,0.0073,0.0051,0.0009,-0.0033,-0.0119,-0.0178,-0.0246,-0.032,-0.0384,-0.0386,-0.0401,-0.0409,-0.0396,-0.0395,-0.0396,-0.0402,-0.0375,-0.0396,-0.0424,-0.0429,-0.037,-0.037,-0.037,-0.037,0,0,0.0101,0.0091,0.0081,0.0081,-0.0002,-0.0037,-0.013,-0.0234,-0.0296,-0.0374,-0.0439,-0.0451,-0.0428,-0.0427,-0.0386,-0.0394,-0.0414,-0.0383,-0.0384,-0.0394,-0.0466,-0.042,-0.0421,-0.0417,-0.0418,-0.0418,-0.0482,0,0.0113,0.0118,0.008,0.0044,0.0037,-0.0057,-0.014,-0.0251,-0.035,-0.0435,-0.0453,-0.0494,-0.044,-0.0406,-0.04,-0.0412,-0.0425,-0.0396,-0.0456,-0.0458,-0.0402,-0.0425,-0.042,-0.0486,-0.0487,-0.0488,-0.0488,0,0.0109,0.0128,0.0115,0.0057,0.0038,-0.001,-0.0142,-0.0224,-0.0369,-0.0441,-0.0459,-0.0487,-0.046,-0.0432,-0.043,-0.0405,-0.0424,-0.045,-0.0453,-0.0412,-0.042,-0.0461,-0.0498,-0.0497,-0.0496,-0.0496,-0.0495,0,0.014,0.0118,0.0118,0.0094,0.0035,-0.0014,-0.008,-0.0233,-0.0296,-0.042,-0.045,-0.0469,-0.043,-0.0461,-0.0461,-0.0449,-0.0504,-0.0507,-0.0497,-0.0495,-0.052,-0.0517,-0.0548,-0.0548,-0.0548,-0.0548,-0.0548,0,0.0141,0.0138,0.0141,0.0148,0.0109,0.0033,-0.0041,-0.0138,-0.0232,-0.029,-0.0392,-0.0375,-0.0433,-0.0462,-0.0488,-0.0483,-0.0516,-0.0492,-0.0505,-0.0518,-0.0514,-0.0524,-0.0521,-0.055,-0.055,-0.0549,-0.0549,0,0.0157,0.0165,0.0181,0.0155,0.0136,0.0103,0.0019,-0.0023,-0.013,-0.0181,-0.0201,-0.0295,-0.0336,-0.0418,-0.049,-0.0485,-0.0535,-0.0542,-0.0553,-0.0566,-0.0508,-0.0503,-0.0536,-0.0535,-0.0534,-0.0533,-0.0532,0,0.0172,0.0191,0.0203,0.0223,0.0214,0.0173,0.0143,0.0036,-0.0006,-0.0106,-0.0114,-0.0188,-0.025,-0.0302,-0.0408,-0.0512,-0.0512,-0.0549,-0.0517,-0.0496,-0.0506,-0.0502,-0.0499,-0.0531,-0.0531,-0.053,-0.053,0,0.0194,0.0197,0.0212,0.0283,0.0284,0.0267,0.0214,0.0197,0.0084,0.0032,-0.0002,-0.0078,-0.0144,-0.024,-0.0341,-0.0407,-0.0532,-0.0539,-0.0541,-0.0511,-0.049,-0.05,-0.0498,-0.0527,-0.0527,-0.0527,-0.0528,0,0.0202,0.0206,0.0252,0.0301,0.0339,0.0337,0.0292,0.0262,0.0218,0.0103,0.0118,-0.0001,-0.0067,-0.0185,-0.0266,-0.0346,-0.0352,-0.0356,-0.0367,-0.0373,-0.0304,-0.0253,-0.0223,0,0,0,0,0,0.0208,0.0214,0.027,0.0304,0.0362,0.0389,0.0337,0.0287,0.0202,0.0216,0.0161,0.0096,-0.0025,-0.0099,-0.0161,-0.0273,-0.0399,-0.0351,-0.0416,-0.0507,-0.0511,-0.0454,0,0,0,0,0,0,0.021,0.0233,0.0263,0.0328,0.038,0.0405,0.0394,0.0327,0.0306,0.0237,0.0178,0.013,-0.0,0.0045,-0.0134,-0.0171,-0.0211,-0.0424,-0.0424,-0.0505,-0.0509,-0.0512,-0.0454,0,0,0,0,0]}]]